GFSCGP_sfc_dewp_000.txt.gz
Dewpoint
28 24 21 19 24 19 15 16 17 15 15 23 23 22 23 23 22 23 23 22 21 21 21 23 26 26 27 27 25 23 23 25 27 28 28 27 27 27 27 27 26 24 25 25
26 24 23 22 22 24 22 18 17 17 20 20 18 17 17 21 20 20 21 21 23 23 22 23 23 26 27 27 25 23 23 24 25 26 26 26 25 24 24 26 25 23 24 24
19 20 27 23 22 22 21 20 19 18 19 19 19 17 18 20 21 21 23 23 23 23 22 23 22 25 26 26 24 22 23 23 24 25 26 25 25 23 22 23 23 22 23 24
24 24 24 26 24 22 17 21 21 20 20 14 21 12 12 15 17 19 21 21 22 22 23 23 23 26 26 25 23 22 23 23 23 24 24 23 22 21 21 21 22 22 22 23
16 19 23 22 20 23 19 19 19 20 21 21 22 19 13 16 15 16 15 16 17 17 19 21 23 25 26 23 22 22 23 23 23 24 23 22 21 21 22 22 20 20 21 22
22 22 22 22 23 21 22 21 21 23 20 16 17 15 13 14 14 14 15 15 16 16 18 20 24 27 25 22 22 22 23 23 24 23 22 21 21 21 21 21 20 20 20 21
17 19 21 23 20 22 22 20 17 14 16 15 16 16 11 12 12 15 13 14 16 17 19 22 24 26 23 21 21 22 23 22 23 23 21 21 20 19 19 20 19 19 19 20
14 11 19 22 19 18 20 18 19 13 11 11 19 15 15 18 16 17 17 18 18 17 21 23 24 25 24 22 21 21 22 22 22 23 22 21 20 19 18 20 20 20 19 18
15 15 21 23 23 19 18 19 20 21 12 15 12 14 14 18 16 16 17 18 18 18 23 24 24 24 24 23 22 21 22 22 22 22 22 22 20 19 18 19 20 20 19 18
19 16 18 18 21 21 21 22 20 21 16 12 12 11 13 15 14 15 15 15 18 19 24 24 23 23 24 24 23 22 21 22 22 22 22 21 21 19 18 18 19 19 19 17
25 25 23 19 19 19 20 19 20 21 24 17 15 15 15 13 15 14 14 15 19 20 24 25 25 24 23 23 24 23 22 22 22 22 22 22 22 20 19 17 18 18 17 16
30 31 31 30 24 21 19 18 19 17 19 21 22 19 24 22 21 21 19 15 15 21 22 24 26 26 24 24 23 23 23 23 23 22 22 22 21 21 19 17 17 17 15 15
37 34 28 30 32 28 16 18 19 19 23 21 23 22 22 21 21 23 22 19 15 15 20 23 24 25 26 24 24 23 23 23 24 23 22 22 21 20 19 18 17 15 14 13
39 35 30 24 23 27 23 23 20 18 17 18 18 17 17 19 20 21 22 22 16 16 19 19 21 22 24 25 24 24 23 23 24 23 22 21 21 20 19 18 15 14 13 12
37 33 35 34 33 32 30 29 28 24 23 22 20 19 20 21 22 23 24 25 22 21 20 21 21 23 24 24 24 24 24 23 23 23 22 21 21 21 20 18 17 16 14 11
36 32 35 32 34 32 31 31 30 28 27 27 28 27 28 28 27 26 26 26 25 26 29 27 23 23 24 23 23 24 23 24 23 23 23 21 22 21 21 18 17 15 14 13
32 31 30 27 31 30 26 31 33 30 31 30 27 29 32 31 31 30 30 33 33 33 32 31 30 31 24 23 23 23 23 24 24 25 25 24 22 20 18 17 15 14 13 13
29 29 29 25 26 19 26 34 34 33 32 32 30 29 29 27 27 34 34 33 31 29 28 30 31 31 31 30 28 26 25 25 25 26 25 23 21 19 16 15 14 13 13 12
23 27 25 22 20 22 25 27 28 28 28 28 26 24 24 25 20 30 22 22 25 27 28 29 33 33 31 28 28 27 23 23 24 24 24 22 20 19 15 15 14 13 13 13
11 10 15 16 14 15 21 23 22 26 25 28 26 26 25 23 16 17 21 27 30 30 31 33 34 33 32 28 23 24 22 21 22 23 22 21 20 19 16 15 15 15 14 13
5 7 10 11 10 16 20 21 16 17 15 26 25 21 21 19 21 23 25 29 31 31 31 30 32 31 33 28 23 22 21 21 21 20 18 16 16 17 15 15 14 14 13 12
1 9 8 11 3 7 18 14 5 8 20 26 20 19 23 22 23 24 26 23 23 24 25 28 29 30 32 32 24 24 22 20 17 17 15 15 15 15 15 12 13 13 12 12
4 10 5 16 14 16 15 14 14 26 21 20 22 22 19 21 21 19 15 16 17 19 22 25 29 30 31 32 28 26 27 17 15 17 17 16 13 14 14 13 12 10 11 10
13 10 9 10 8 9 8 8 12 19 20 19 17 16 17 14 12 11 11 12 13 18 20 20 21 24 26 29 31 30 29 21 18 17 16 14 13 12 12 11 11 10 10 9
10 13 10 10 11 10 8 10 16 17 17 13 13 13 12 10 10 9 9 12 14 13 13 15 15 15 16 20 26 31 31 21 19 17 15 14 13 11 11 12 11 10 10 10
12 9 7 5 5 5 8 13 15 16 13 13 12 11 11 11 10 9 10 10 9 9 10 10 10 10 12 15 17 20 28 22 21 16 14 12 12 10 10 10 10 18 18 18

GFSCGP_sfc_dewp_003.txt.gz
Dewpoint
27 23 21 19 23 17 16 17 17 17 18 22 22 21 21 21 22 21 21 22 22 22 22 22 23 27 27 25 25 24 24 25 28 29 29 29 29 31 31 30 27 26 26 27
26 23 23 22 22 23 23 20 19 19 19 18 18 17 18 19 19 19 18 17 17 18 20 21 23 26 27 26 26 25 24 24 27 28 27 27 27 28 29 29 27 25 26 26
20 20 26 23 22 21 21 20 18 18 20 19 18 16 17 18 19 19 19 19 19 20 21 22 23 24 26 27 26 25 24 24 26 27 27 25 24 23 24 25 26 24 24 25
24 24 23 25 22 21 16 21 21 21 20 16 22 11 10 13 13 15 17 18 20 21 22 23 23 23 25 26 27 25 24 25 25 26 25 23 24 22 24 24 25 24 23 23
16 21 23 23 22 22 19 20 19 19 18 20 20 17 19 14 13 15 16 17 18 18 19 19 22 24 25 27 25 24 24 24 24 25 25 24 23 23 23 23 21 22 22 22
23 22 21 21 22 23 22 20 21 23 19 17 18 16 11 13 13 14 15 15 16 16 16 18 20 23 27 25 24 23 24 24 24 25 24 23 22 22 21 21 21 21 21 21
16 19 21 22 19 22 20 19 16 14 16 15 17 16 11 12 13 13 13 14 16 18 18 18 20 24 25 23 24 23 24 23 23 24 23 23 22 22 20 20 20 20 20 19
15 18 18 21 19 17 20 19 19 11 12 13 18 14 14 16 16 18 19 19 19 18 19 21 21 24 25 24 24 23 23 23 23 23 23 23 22 22 20 20 21 20 20 19
16 16 21 21 21 18 17 17 19 21 19 19 13 13 14 17 16 14 16 17 17 18 19 23 24 24 25 23 23 24 23 24 24 23 23 22 22 21 21 21 21 21 20 18
19 17 19 18 21 21 18 21 18 20 15 13 12 11 13 14 14 16 19 19 19 18 19 24 25 24 25 24 24 23 24 24 24 24 23 23 22 21 21 20 20 20 20 18
22 27 27 25 21 23 19 19 19 20 23 15 14 16 18 18 14 18 23 24 23 18 18 21 26 26 25 25 25 24 23 23 24 24 23 24 24 22 21 20 20 20 20 18
32 33 32 31 26 26 22 22 22 19 18 19 17 17 22 21 24 27 28 28 25 16 18 21 24 26 27 25 25 25 24 24 24 24 24 24 23 23 20 19 19 20 19 18
35 33 29 30 30 31 31 31 29 27 24 21 19 18 23 23 24 26 26 23 23 22 19 20 22 23 25 26 26 25 25 25 25 24 24 23 23 22 21 20 18 19 18 17
39 35 33 29 30 30 30 27 26 27 24 22 20 19 23 23 22 22 25 27 30 32 32 31 30 30 30 31 28 26 25 25 26 25 24 23 23 22 22 21 18 18 18 16
36 32 32 32 33 34 34 33 33 29 25 23 26 27 27 27 28 31 31 28 27 26 26 24 29 29 30 31 33 30 28 26 25 25 25 24 23 23 23 23 21 19 18 16
33 27 29 28 27 27 30 32 32 31 28 29 27 25 26 24 22 23 20 13 13 16 19 23 26 28 30 31 31 30 28 28 26 25 25 24 25 24 25 24 22 19 18 17
27 26 25 20 22 21 18 20 19 19 27 27 24 21 24 21 20 18 22 13 16 18 22 23 26 29 32 32 30 29 27 27 29 28 28 27 25 24 24 23 21 19 18 16
25 23 22 17 15 6 11 19 29 26 24 24 23 24 22 20 16 15 22 13 21 24 29 30 32 31 32 32 31 29 28 28 26 27 29 26 25 25 23 21 19 18 17 16
28 25 17 6 4 10 13 20 20 19 19 23 22 22 19 16 10 6 10 18 22 28 28 27 27 28 30 29 32 31 29 27 25 24 25 25 25 25 21 21 19 18 18 17
11 17 10 2 6 7 18 16 22 14 17 23 24 22 20 19 8 6 16 21 27 24 22 23 25 27 28 29 31 31 29 29 26 23 23 22 21 20 21 20 19 19 18 17
-0 -1 -2 -5 -4 4 15 14 11 0 4 11 24 21 19 16 16 19 22 23 21 18 17 17 20 22 26 28 29 30 30 29 29 22 19 16 17 18 21 20 19 17 17 16
0 -7 -7 -8 -9 -4 16 9 4 7 14 19 20 17 20 21 19 19 21 18 13 12 12 13 18 21 18 20 26 26 27 29 29 25 19 18 15 16 19 19 18 17 16 14
0 4 -2 4 4 16 12 10 14 17 21 19 19 20 21 18 14 16 12 11 11 10 9 13 16 13 13 18 19 18 19 23 29 29 26 22 20 18 18 17 16 15 15 13
11 9 13 9 8 8 11 12 11 13 17 19 21 18 15 13 14 12 11 10 9 10 12 14 12 11 10 12 13 15 18 21 21 23 25 22 19 17 17 17 15 15 13 13
9 13 10 10 10 10 10 11 13 15 16 17 14 13 11 12 10 9 9 10 10 10 11 11 9 9 7 8 9 11 12 13 14 18 22 21 18 17 16 16 15 15 16 17
12 9 8 7 8 8 7 10 15 15 14 13 11 11 12 11 9 9 7 7 8 7 7 7 6 5 4 4 5 6 7 8 9 11 15 20 17 15 14 13 13 19 20 21

GFSCGP_sfc_dewp_006.txt.gz
Dewpoint
26 23 21 19 22 17 15 15 15 16 17 18 16 16 17 18 21 20 18 19 20 20 22 22 23 24 27 27 27 26 26 29 33 33 32 32 32 32 32 32 30 29 30 29
25 23 23 23 21 22 21 19 17 18 20 19 19 18 18 19 19 18 18 18 18 18 18 19 20 23 27 27 26 26 25 27 30 31 31 31 31 31 31 32 30 28 28 28
21 21 26 23 21 20 20 20 18 18 20 20 18 16 18 19 20 19 20 19 19 19 19 19 20 23 25 27 26 26 26 26 28 29 29 27 26 26 28 29 28 26 27 27
24 25 23 24 21 21 17 21 21 20 19 15 18 12 12 14 14 14 15 16 18 18 20 21 21 23 24 25 27 27 26 26 27 28 28 26 26 26 27 27 29 27 26 26
18 21 22 22 22 22 20 20 19 21 19 20 18 15 19 14 13 14 15 16 17 17 17 18 18 19 23 25 27 27 26 26 26 27 27 26 26 26 26 27 27 27 24 25
23 23 22 20 22 23 22 20 21 22 19 17 17 15 12 12 12 17 12 13 15 16 18 19 20 21 23 26 26 25 25 25 26 27 26 25 25 24 25 25 26 25 24 23
19 19 22 21 19 23 20 19 16 14 16 15 17 16 12 14 14 14 14 14 16 19 19 19 22 23 24 25 24 24 25 25 25 26 26 26 25 23 23 23 24 24 24 23
20 26 19 20 20 18 20 19 19 15 13 15 18 15 18 16 16 18 17 18 18 19 20 21 24 25 25 25 24 23 24 24 24 25 25 25 24 24 23 23 24 23 23 23
19 20 19 21 20 18 17 18 21 21 23 19 17 17 17 19 17 20 15 18 20 21 20 20 24 25 25 24 24 24 24 25 24 25 25 24 24 24 23 22 23 23 23 21
22 19 20 19 23 21 18 20 18 20 17 16 15 14 17 17 17 18 17 19 26 24 21 20 22 26 25 26 24 24 24 24 25 25 24 24 24 24 23 22 22 22 22 21
21 27 26 29 24 22 25 19 19 20 22 19 19 18 18 18 18 18 22 28 28 27 29 29 29 29 29 28 26 25 24 24 25 25 25 25 25 24 23 22 22 22 22 20
25 34 31 28 31 26 23 25 24 22 20 20 20 20 23 22 22 28 30 31 31 29 27 28 29 29 30 31 33 31 27 26 26 25 25 25 25 24 23 22 22 22 21 20
38 34 28 29 27 32 31 32 31 32 32 28 26 25 27 25 25 28 24 20 20 20 21 23 25 27 28 29 30 29 29 28 28 27 25 25 24 24 23 22 21 21 21 20
39 34 31 26 26 30 30 31 33 33 29 27 28 27 27 27 25 24 20 13 13 15 18 21 24 26 28 29 29 28 27 27 28 27 26 25 24 24 24 23 22 21 21 20
36 31 31 30 33 33 32 30 28 28 28 26 26 27 27 23 23 23 23 19 16 16 21 25 27 28 31 29 29 28 28 28 28 27 27 27 26 25 24 25 25 22 22 20
33 27 28 23 23 21 22 25 25 25 24 25 25 22 21 20 19 17 19 23 17 19 23 28 25 31 27 25 28 27 29 30 29 28 28 27 28 27 26 26 25 22 21 21
28 26 23 18 19 20 15 18 21 20 18 21 18 19 21 18 13 8 14 25 15 23 26 29 24 23 24 25 28 26 29 31 29 29 28 28 27 27 27 25 24 22 21 21
24 23 22 18 15 8 13 22 23 22 22 22 22 20 21 19 15 15 25 15 16 19 25 23 19 19 23 23 25 27 29 28 29 29 28 27 26 25 25 23 24 22 21 20
25 22 14 10 2 9 12 16 16 17 18 20 17 19 21 20 19 4 9 14 20 22 27 20 19 21 22 22 24 27 22 25 27 28 29 27 26 24 23 22 22 22 21 21
15 22 18 3 5 -4 14 12 17 20 10 17 18 19 21 19 7 5 10 19 20 23 20 17 17 19 22 22 24 21 20 22 21 24 26 27 24 22 21 21 19 20 22 22
-2 -4 3 1 -6 1 13 14 11 1 2 12 19 20 19 18 14 14 18 18 21 22 15 14 13 12 14 23 18 17 19 18 19 21 20 25 27 24 22 22 18 18 20 19
3 -4 -9 -11 -11 -12 16 10 2 7 15 14 13 18 18 18 18 20 17 15 17 13 12 11 10 9 11 13 14 14 13 14 16 17 19 22 22 25 22 20 18 18 18 19
1 6 -2 0 -1 12 16 14 13 18 15 16 18 20 18 19 17 16 13 14 14 11 10 10 12 12 11 13 13 11 11 11 12 14 15 15 17 22 22 21 20 18 18 16
11 10 7 8 8 8 9 11 12 13 13 13 16 19 20 18 15 13 12 12 10 11 12 12 11 10 10 10 11 10 9 9 9 8 8 9 12 15 22 20 20 19 18 17
11 13 10 10 9 9 11 12 12 12 14 16 17 15 14 13 11 11 11 11 10 10 9 9 10 9 8 8 7 7 6 5 4 5 5 6 8 11 17 20 19 18 19 19
13 10 8 7 8 8 8 11 14 15 15 13 11 11 12 11 10 8 7 7 7 7 7 6 5 5 4 3 3 3 3 1 1 1 1 2 5 8 11 17 17 21 23 23

GFSCGP_sfc_dewp_009.txt.gz
Dewpoint
28 23 21 20 21 19 16 15 15 15 16 19 17 17 18 19 20 19 19 19 19 20 21 23 25 28 29 31 31 31 30 36 42 43 41 39 39 40 38 39 38 34 34 33
24 23 23 23 22 21 20 20 18 20 20 20 19 18 19 19 19 19 19 19 21 21 21 22 23 25 26 29 30 31 29 32 38 40 40 38 39 38 37 37 35 34 34 33
22 22 26 24 22 20 21 19 18 18 20 20 19 17 19 18 21 21 21 22 21 21 21 20 22 24 28 29 30 29 29 30 34 36 36 31 32 31 33 33 33 32 32 32
24 25 23 24 21 21 19 21 21 20 19 16 18 12 16 15 15 16 18 18 18 20 20 20 21 23 24 28 31 30 30 29 32 34 33 32 32 31 32 33 32 31 31 31
19 22 23 23 22 22 21 21 20 21 20 19 19 15 15 15 14 15 16 19 21 20 22 21 22 25 24 28 30 31 30 29 30 32 32 31 31 31 31 32 31 30 29 30
23 24 22 20 22 23 22 21 20 23 20 16 18 15 15 13 13 15 17 18 21 21 22 23 25 27 27 28 28 29 28 27 28 31 31 31 30 29 29 29 30 30 28 28
20 20 23 22 20 22 22 19 17 16 17 16 18 15 15 15 16 17 16 18 19 23 23 24 25 26 26 26 27 26 27 26 28 29 29 30 30 28 28 29 29 29 27 26
23 26 21 22 21 21 21 20 20 16 16 18 19 18 22 19 20 20 19 20 26 27 25 27 28 29 29 28 26 26 26 26 26 27 28 29 28 27 27 27 29 28 27 27
21 22 21 21 20 19 18 18 23 22 23 21 17 19 22 24 18 20 27 29 29 29 30 29 30 30 31 32 29 27 25 26 26 26 27 27 27 27 26 26 27 28 28 26
23 29 26 22 21 21 19 21 20 20 17 16 17 17 18 21 23 29 29 29 26 24 24 27 28 29 30 32 31 30 28 27 27 27 27 26 27 27 26 25 25 26 27 26
24 27 27 29 23 18 20 18 19 20 23 18 20 21 22 25 29 28 24 20 19 19 21 23 26 28 29 30 29 28 29 28 28 29 28 27 27 27 26 25 25 25 25 24
25 33 29 29 30 28 26 25 25 27 26 24 25 26 28 27 25 20 14 14 16 18 20 22 24 28 30 29 29 29 28 28 28 29 28 28 27 26 25 25 24 25 24 24
38 34 28 29 28 32 33 33 33 33 32 28 25 27 29 26 25 25 18 17 16 16 18 24 25 26 31 27 27 27 27 28 29 29 28 28 28 27 26 25 25 24 24 23
39 34 31 26 25 31 31 31 32 32 29 26 27 28 27 24 21 21 24 24 19 19 18 24 26 24 27 22 23 27 25 28 30 28 28 28 28 28 27 27 26 24 24 23
36 30 32 31 30 29 27 26 26 25 25 24 23 23 25 22 20 20 18 25 20 15 19 23 28 23 21 18 19 22 23 27 29 28 28 28 28 28 28 28 28 27 25 23
33 28 27 22 25 23 21 20 20 20 20 22 22 23 20 20 20 15 10 21 19 12 18 23 29 21 20 18 19 21 22 26 24 27 28 28 29 27 27 28 27 27 26 25
29 27 22 19 20 19 16 17 16 16 17 17 16 16 19 18 16 12 12 24 16 14 16 18 27 18 17 18 21 20 24 25 23 25 26 27 28 26 25 27 26 25 26 25
27 24 22 18 9 8 14 22 21 19 20 20 18 16 18 19 19 18 19 22 12 15 19 20 24 18 15 19 20 19 24 20 20 23 23 23 22 21 25 25 25 25 25 24
25 21 14 13 8 9 12 14 16 17 15 18 15 17 17 20 20 18 14 10 12 18 21 22 22 19 16 17 18 21 23 18 18 19 18 19 19 18 25 25 24 24 23 23
17 23 18 7 3 -7 9 10 16 16 6 16 13 12 13 19 12 8 8 12 17 20 20 22 20 16 15 14 18 19 20 14 15 17 17 17 17 18 21 19 23 23 23 23
-3 -0 13 12 10 5 12 14 14 -1 2 14 14 15 16 17 16 14 15 17 19 19 19 20 16 13 11 11 16 16 14 13 14 16 15 13 14 16 17 18 21 22 22 22
4 -5 -11 -11 -8 -2 14 11 4 9 15 14 15 14 13 15 18 20 18 18 16 15 15 14 12 10 9 11 13 13 12 12 13 13 11 10 10 12 13 13 15 20 21 20
5 6 1 1 0 10 15 14 11 14 15 14 15 15 16 17 18 17 16 16 14 13 13 12 13 13 11 12 13 12 12 12 11 9 8 7 7 8 9 9 11 15 20 19
10 9 6 8 7 8 8 10 11 13 15 15 15 15 17 18 18 16 13 12 11 13 12 12 12 11 9 10 11 11 9 9 7 5 4 5 4 5 6 7 9 12 18 19
12 12 10 10 10 10 11 11 11 12 14 14 16 15 14 13 12 11 11 11 10 9 8 8 8 7 6 6 5 5 5 4 3 2 2 2 1 1 2 4 7 10 16 20
13 11 10 9 9 9 8 11 14 14 15 12 11 11 12 12 9 7 6 6 6 5 5 3 2 1 0 0 -0 -0 -0 -1 -2 -3 -3 -3 -2 -2 -1 1 2 10 14 18